435  
ASUS44 KSHV 210210  
RWRSHV  
 
THE FOUR STATE AREA WEATHER ROUNDUP  
NATIONAL WEATHER SERVICE SHREVEPORT LA  
900 PM CDT SUN SEP 20 2020  
 
NOTE: "FAIR" INDICATES FEW OR NO CLOUDS BELOW 12000 FEET  
WITH NO SIGNIFICANT WEATHER AND/OR S TO VISIBILITY
.  
 
!LAZ001-LAZ014-TXZ097-210300  
SHREVEPORT...MONROE...TEXARKANA RADIOS  
 
CITY SKY/WX TMP DP RH WIND PRES REMARKS
 
SHREVEPORT CLOUDY 79 60 52 NE15G21 30.07R  
MONROE CLOUDY 78 57 48 E9 30.11R  
NATCHITOCHES CLOUDY 75 64 70 E6 30.07R  
TEXARKANA CLEAR 71 62 73 NE6 30.13R  

 
 
!LAZ001-LAZ014-TXZ097-210300  
OTHER LOCATIONS...  
 
CITY SKY/WX TMP DP RH WIND PRES REMARKS
 
DOWNTOWN SHV CLOUDY 77 63 61 NE8 30.08R  
BOSSIER CITY CLOUDY 76 62 61 NE5 30.08R  
RUSTON MOCLDY 74 56 53 CALM 30.13R  
LITTLE ROCK CLEAR 70 60 70 NE9 30.18R  
EL DORADO CLOUDY 72 64 76 NE7 30.12R  
JACKSON CLOUDY 73 58 59 E6 30.13R  
NEW ORLEANS DRIZZLE 71 66 84 E16G26 30.04R  
HOUSTON LGT RAIN 73 70 90 N17G24 29.95R  
LUFKIN CLOUDY 77 64 64 NE10 30.03R  
TYLER CLOUDY 76 64 66 NE7 30.08R  
DAL FT WORTH PTCLDY 74 62 66 NE8 30.08R  

 
 
!TXZ136-TXZ165-210300  
TYLER...LUFKIN RADIOS  
 
CITY SKY/WX TMP DP RH WIND PRES REMARKS
 
TYLER CLOUDY 76 64 66 NE7 30.08R  
GILMER MOCLDY 73 62 68 NE6 30.10R  
LONGVIEW CLOUDY 76 61 59 NE7 30.07R  
LUFKIN CLOUDY 77 64 64 NE10 30.03R  

 
 
!TXZ136-TXZ165-210300  
OTHER LOCATIONS...  
 
CITY SKY/WX TMP DP RH WIND PRES REMARKS
 
NACOGDOCHES CLOUDY 77 64 64 E6 30.06R  
BEAUMONT CLOUDY 72 69 90 NE18 29.93R  
HOUSTON LGT RAIN 73 70 90 N17G24 29.95R  
COLLEGE STN CLOUDY 72 70 93 N6 30.02S  
AUSTIN HVY RAIN 71 69 93 N13 30.05R FOG  
DAL FT WORTH PTCLDY 74 62 66 NE8 30.08R  
TEXARKANA CLEAR 71 62 73 NE6 30.13R  
SHREVEPORT CLOUDY 79 60 52 NE15G21 30.07R  
FORT POLK CLOUDY 72 65 79 NE13G23 30.05R  
LAKE CHARLES CLOUDY 72 69 90 E22G33 29.96R  

 
 
 
CLICK HERE TO GO TO PREVIOUS BULLETINS.

The Nexlab LA Page
The Nexlab TX Page
The Nexlab AR Page
The Nexlab OK Page Main Text Page